sat.trackr.live / text

‹ back to catalog

STARLINK-30107

NORAD 56287 · 2023-056B

PAYLOAD ACTIVE UNKNOWN

§ Identity

Operator
Country
US
Launch date
2023-04-19
Launch site
AFETR
Launch vehicle
Mass (kg)
RCS (m²)

Purposes: comms

External: N2YO · Heavens-Above · Gunter

§ Orbital elements

Epoch: 2026-09-20T10:39:13.112064Z

Period
94.27 min
Inclination
43.0016°
Eccentricity
0.0000996
Mean motion
15.27560345 rev/d
Perigee alt
482.4 km
Apogee alt
483.8 km
Semi-major
6,861.2 km
B*
1.2035e-4
RAAN
171.2817°
Arg perigee
276.6877°
Mean anomaly
83.3861°
Rev number
19,008

§ Raw data

STARLINK-301071 56287U 23056B   26263.44390176  .00003049  00000+0  12035-3 0  99962 56287  43.0016 171.2817 0000996 276.6877  83.3861 15.27560345190083

JSON: /api/v1/satellites/56287 · /tle

For live sub-satellite position, see the globe view (requires WebGL).

§ Visibility from observer

Set your observer location to see the next 7 days of passes ≥ 10°. The values pass through the URL so the page stays shareable.

No JS? Fill the form by hand. The geolocation button needs JavaScript.